Location: Zlin
(49.2330°N, 17.6670°E)
Time: 00:05:18
(UTC+01:00)

ISS - Pass Details

Date: 03 October 2020
Orbit: 417 x 420 km, 51.6° (Epoch: 30 October)

Event Time Altitude Azimuth Distance (km) Brightness Sun altitude
Rises 19:32:54 0° 289° (WNW) 2,369 1.9 -12.2°
Reaches altitude 10° 19:35:01 10° 286° (WNW) 1,503 0.5 -12.5°
Maximum altitude 19:38:20 56° 207° (SSW) 504 -3.3 -13.1°
Enters shadow 19:40:26 20° 134° (SE) 1,030 -2.3 -13.4°
